Location: Hastringsfeld
(50.9620°N, 10.4787°E)
Time: 04:15:20
(UTC+00:00)

Cosmos 1151 Rocket - Pass Details

Date: 26 September 2023
Orbit: 589 x 613 km, 82.5° (Epoch: 29 November)

Event Time Altitude Azimuth Distance (km) Brightness Sun altitude
Rises 04:32:23 0° 189° (S) 2,855 6.3 -6.7°
Reaches altitude 10° 04:34:35 10° 190° (S) 1,959 5.5 -6.4°
Maximum altitude 04:38:56 87° 279° (W) 620 3.1 -5.7°
Drops below altitude 10° 04:43:20 10° 10° (N) 1,986 5.9 -5.0°
Sets 04:45:35 0° 11° (N) 2,897 6.7 -4.7°
